This is the latest recevied weather packets stored in our database for station/object vk4zu-13. If no packets are shown the sender has not sent any weather packets the latest 1 day(s).
| Time | Temp. | Humidity | Pressure | Rain* | Wind** | Luminosity | Snow |
|---|---|---|---|---|---|---|---|
| 1778038725 | 23.33° C | 81% | 1016.6 hPa | 0 mm | - | 223 W/m² | - |
| 1778038656 | 23.33° C | 80% | 1016.7 hPa | 0 mm | - | 225 W/m² | - |
| 1778038588 | 23.33° C | 80% | 1016.7 hPa | 0 mm | - | 237 W/m² | - |
| 1778038515 | 23.33° C | 79% | 1016.7 hPa | 0 mm | - | 243 W/m² | - |
| 1778038376 | 23.33° C | 82% | 1016.7 hPa | 0 mm | - | 257 W/m² | - |
| 1778038306 | 23.33° C | 81% | 1016.7 hPa | 0 mm | - | 258 W/m² | - |
| 1778038242 | 23.33° C | 80% | 1016.8 hPa | 0 mm | - | 260 W/m² | - |
| 1778038114 | 23.33° C | 81% | 1016.7 hPa | 0 mm | - | 262 W/m² | - |
| 1778038044 | 23.33° C | 81% | 1016.9 hPa | 0 mm | - | 257 W/m² | - |
| 1778037977 | 23.33° C | 84% | 1016.8 hPa | 0 mm | - | 253 W/m² | - |
| 1778037904 | 23.33° C | 84% | 1016.8 hPa | 0 mm | - | 248 W/m² | - |
| 1778037834 | 23.33° C | 82% | 1016.8 hPa | 0 mm | - | 244 W/m² | - |
| 1778037778 | 23.33° C | 83% | 1016.9 hPa | 0 mm | - | 241 W/m² | - |
| 1778037711 | 23.33° C | 82% | 1016.9 hPa | 0 mm | - | 239 W/m² | - |
| 1778037651 | 22.78° C | 82% | 1016.8 hPa | 0 mm | - | 237 W/m² | - |
| 1778037588 | 22.78° C | 81% | 1016.9 hPa | 0 mm | - | 236 W/m² | - |
| 1778037517 | 22.78° C | 84% | 1017 hPa | 0 mm | - | 236 W/m² | - |
| 1778037447 | 22.78° C | 81% | 1017 hPa | 0 mm | - | 230 W/m² | - |
| 1778037377 | 22.78° C | 80% | 1016.9 hPa | 0 mm | - | 227 W/m² | - |
| 1778037314 | 22.78° C | 82% | 1016.9 hPa | 0 mm | - | 223 W/m² | - |
| 1778037256 | 23.33° C | 81% | 1017 hPa | 0 mm | - | 220 W/m² | - |
| 1778037185 | 23.33° C | 83% | 1017 hPa | 0 mm | - | 220 W/m² | - |
| 1778037048 | 22.78° C | 82% | 1017 hPa | 0 mm | - | 230 W/m² | - |
| 1778036976 | 22.78° C | 80% | 1017 hPa | 0 mm | - | 236 W/m² | - |
| 1778036913 | 23.33° C | 82% | 1017.1 hPa | 0 mm | - | 237 W/m² | - |
* Rain latest hour (hover to see other rain measurements)
** Current wind speed in m/s (hover to see current wind gust speed)